軌道要素
Epoch 2012 Feb. 3.0 TT = JDT 2455960.5
T 2012 Jan. 20.31254 TT MPC
q 3.9181921 (2000.0) P Q
n 0.09094260 Peri. 92.59122 +0.05661830 -0.99838784
a 4.8973124 Node 354.15852 +0.89963417 +0.05275971
e 0.1999301 Incl. 2.25905 +0.43295812 +0.02093178
P 10.8
From 1114 observations 2000 Nov. 29-2014 Apr. 30, mean residual 0".6.
|